Aeroporto :
LOGIN :

Iscrizione | Disclaimer

   EN    FR    IT 

 










Sommario :    VFR   VFR Marginale   IFR   IFR Intensivo   IFR Molto Intensivo
Visibilità : 
Base nubi : 
>= 8 km
>= 3000ft
5 / 8 km
1000 / 3000 ft
1500m / 5 km
500 / 1000 ft
800 / 1500m
200 / 500 ft
< 800m
< 200 ft
Simboli :   Temporali  Nebbia  Neve Forte  Precipitazioni Forti  Vento > 20 kt
SIGMETs :   Varie  Temporali  Ghiacco  Turbolenza  Onda orograficha  Ceneri Vulcaniche






- Altitudine del aeroporto : 56 ft
- Codice IATA : BZR


LFMU - Beziers / Vias

ULTIMO METAR :
  • 291730Z AUTO 12011KT 9999 SCT016 SCT021 BKN029 21/17 Q1017

METARs OBSOLETI :
  • 291700Z AUTO 12012KT 090V150 9999 BKN018 BKN030 21/16 Q1017
  • 291630Z AUTO 12012KT 100V160 9999 BKN017 OVC023 22/17 Q1017
  • 291600Z AUTO 13010KT 100V170 9999 FEW021 22/17 Q1016
  • 291530Z AUTO 13011KT 090V170 CAVOK 23/15 Q1016
  • 291500Z AUTO 14010KT 110V180 CAVOK 23/14 Q1016

Previsioni scadute.
ATIS : +33 4 67 90 88 88



MetMap, La meteo Aeronautica in un colpo d'occhio ! - Copyright ORBIFLY Dicembre 2007 - Disclaimer

ORBIFLY MET'MAP TEAM :

Programmazione e sviluppo : Alexandra Zaïnal
Concezione : Baudouin d'Aumeries
Aiuto per la programmazione : Marc-Olivier Méhu
Supporto tecnico e logistico : Manuel Goepfert
Aiuto per la traduzione : Arnaldo La Scala

Contatto : metmap@orbifly.com




FONTI E CREDITI :

   NOAA